Date String (YYYY-MM-DD hh:mm:ss) UTC,Instrument flags,Ambient pressure (hPa),Sample flow (lpm),Bypass flow (lpm),Sample temperature (°C),Ambient temperature (°C),ASC tube jacket temperature (°C),LED temperature (°C),Box temperature (°C),Sample RH (%),Span deviation,Mass concentration (μg/m³),Mass concentration (μg/m³),Mass concentration (μg/m³)
DateTimeUTC,F1_M11,P_M11,Q1_M11,Q2_M11,T1_M11,T2_M11,T3_M11,T4_M11,T5_M11,U1_M11,ZSPAN_M11,X0_M11,X2_M11,X1_M11
2022-12-05 18:00:00,,0818.8,4.99,0.00,22.6,21.5,00.0,31.5,24.5,17.4,0001.4,0011.68,0007.16,0006.40
2022-12-05 18:01:00,,0818.8,4.99,0.00,22.6,21.5,00.0,31.5,24.6,17.4,0002.3,0011.76,0007.04,0006.33
2022-12-05 18:02:00,,0818.9,5.00,0.00,22.7,21.5,00.0,31.5,24.6,17.4,0001.7,0011.80,0007.01,0006.27
2022-12-05 18:03:00,,0818.9,5.00,0.00,22.7,21.6,00.0,31.5,24.6,17.5,0001.7,0011.50,0006.91,0006.22
2022-12-05 18:04:00,,0818.9,5.01,0.00,22.7,21.6,00.0,31.5,24.6,17.5,0002.2,0011.39,0006.85,0006.15
2022-12-05 18:05:00,,0818.8,5.01,0.00,22.7,21.6,00.0,31.5,24.6,17.5,0002.0,0011.67,0006.82,0006.08
2022-12-05 18:06:00,,0818.8,4.99,0.00,22.7,21.6,00.0,31.5,24.6,17.5,0002.1,0011.49,0006.76,0006.01
2022-12-05 18:07:00,,0818.8,4.99,0.00,22.7,21.6,00.0,31.5,24.7,17.5,0002.2,0011.40,0006.66,0005.93
2022-12-05 18:08:00,,0818.7,5.00,0.00,22.7,21.6,00.0,31.5,24.7,17.5,0000.8,0011.08,0006.51,0005.84
2022-12-05 18:09:00,,0818.6,5.01,0.00,22.7,21.6,00.0,31.5,24.7,17.6,0001.0,0010.92,0006.38,0005.74
2022-12-05 18:10:00,,0818.5,5.01,0.00,22.7,21.6,00.0,31.6,24.7,17.7,0000.6,0010.86,0006.27,0005.67
2022-12-05 18:11:00,,0818.4,5.00,0.00,22.7,21.6,00.0,31.6,24.7,17.7,0000.0,0010.33,0006.17,0005.60
2022-12-05 18:12:00,,0818.4,4.99,0.00,22.7,21.6,00.0,31.6,24.7,17.8,0000.0,0011.01,0006.14,0005.54
2022-12-05 18:13:00,,0818.4,5.00,0.00,22.7,21.6,00.0,31.6,24.7,17.9,0000.0,0010.86,0006.05,0005.47
2022-12-05 18:14:00,,0818.4,5.00,0.00,22.7,21.6,00.0,31.6,24.7,17.9,0000.0,0011.33,0006.01,0005.41
2022-12-05 18:15:00,,0818.4,5.00,0.00,22.7,21.6,00.0,31.6,24.7,17.8,0000.0,0011.65,0005.97,0005.36
2022-12-05 18:16:00,,0818.4,5.00,0.00,22.7,21.5,00.0,31.6,24.7,17.3,0000.0,0011.72,0005.95,0005.34
2022-12-05 18:17:00,,0818.4,5.00,0.00,22.7,21.5,00.0,31.6,24.7,17.2,0000.0,0012.36,0005.96,0005.33
2022-12-05 18:18:00,,0818.4,5.00,0.00,22.8,21.6,00.0,31.6,24.7,17.0,0000.0,0012.59,0005.96,0005.34
2022-12-05 18:19:00,,0818.4,5.00,0.00,22.8,21.6,00.0,31.6,24.7,17.3,-000.5,0013.23,0006.01,0005.38
2022-12-05 18:20:00,,0818.4,5.00,0.00,22.8,21.6,00.0,31.6,24.7,17.5,-000.7,0013.21,0006.02,0005.40
2022-12-05 18:21:00,,0818.4,5.00,0.00,22.8,21.6,00.0,31.6,24.7,17.4,-000.1,0013.23,0006.06,0005.43
2022-12-05 18:22:00,,0818.4,4.98,0.00,22.8,21.6,00.0,31.6,24.7,17.7,0000.1,0013.50,0006.10,0005.46
2022-12-05 18:23:00,,0818.4,5.00,0.00,22.8,21.6,00.0,31.6,24.7,17.8,-000.1,0012.91,0006.11,0005.48
2022-12-05 18:24:00,,0818.4,5.01,0.00,22.8,21.6,00.0,31.6,24.7,17.9,0000.5,0012.74,0006.07,0005.48
2022-12-05 18:25:00,,0818.3,5.01,0.00,22.8,21.6,00.0,31.6,24.7,17.8,0000.7,0012.86,0006.03,0005.48
2022-12-05 18:26:00,,0818.2,5.01,0.00,22.8,21.6,00.0,31.6,24.7,17.8,0001.0,0012.44,0006.00,0005.47
2022-12-05 18:27:00,,0818.2,4.99,0.00,22.8,21.6,00.0,31.7,24.7,17.9,0001.8,0011.90,0005.95,0005.45
2022-12-05 18:28:00,,0818.2,5.00,0.00,22.8,21.6,00.0,31.7,24.7,17.9,0002.6,0011.53,0005.91,0005.42
2022-12-05 18:29:00,,0818.2,5.00,0.00,22.8,21.6,00.0,31.7,24.7,17.9,0002.0,0011.29,0005.87,0005.37
2022-12-05 18:30:00,,0818.1,4.99,0.00,22.8,21.6,00.0,31.7,24.7,18.0,0002.0,0010.72,0005.82,0005.32
2022-12-05 18:31:00,,0818.1,4.99,0.00,22.8,21.7,00.0,31.7,24.7,17.9,0003.8,0010.76,0005.81,0005.31
2022-12-05 18:32:00,,0818.0,5.00,0.00,22.8,21.7,00.0,31.7,24.8,17.8,0003.3,0010.68,0005.79,0005.33
2022-12-05 18:33:00,,0818.0,5.00,0.00,22.8,21.7,00.0,31.7,24.8,17.7,0000.0,0010.34,0005.81,0005.35
2022-12-05 18:34:00,,0818.0,5.01,0.00,22.8,21.7,00.0,31.7,24.8,17.8,0000.0,0010.23,0005.83,0005.38
2022-12-05 18:35:00,,0818.0,5.00,0.00,22.8,21.7,00.0,31.7,24.8,17.7,0000.0,0010.28,0005.93,0005.45
2022-12-05 18:36:00,,0818.0,4.99,0.00,22.8,21.7,00.0,31.7,24.8,17.7,0000.0,0009.97,0006.01,0005.51
2022-12-05 18:37:00,,0818.0,4.99,0.00,22.8,21.7,00.0,31.7,24.8,17.7,0000.7,0009.95,0006.09,0005.58
2022-12-05 18:38:00,,0817.9,5.00,0.00,22.9,21.7,00.0,31.7,24.8,17.9,0002.2,0009.96,0006.16,0005.64
2022-12-05 18:39:00,,0818.0,5.00,0.00,22.9,21.7,00.0,31.7,24.8,17.8,0000.9,0009.71,0006.17,0005.69
2022-12-05 18:40:00,,0818.0,5.00,0.00,22.9,21.7,00.0,31.7,24.8,18.1,0000.3,0009.71,0006.22,0005.74
2022-12-05 18:41:00,,0818.0,5.00,0.00,22.9,21.8,00.0,31.7,24.8,18.1,0000.1,0010.40,0006.28,0005.79
2022-12-05 18:42:00,,0818.0,5.00,0.00,22.9,21.8,00.0,31.7,24.8,18.5,-000.2,0010.59,0006.33,0005.82
2022-12-05 18:43:00,,0818.0,5.00,0.00,22.9,21.8,00.0,31.8,24.9,18.0,-000.8,0010.60,0006.35,0005.84
2022-12-05 18:44:00,,0818.1,5.00,0.00,22.9,21.8,00.0,31.8,24.9,18.1,-000.5,0010.89,0006.41,0005.85
2022-12-05 18:45:00,,0818.0,5.01,0.00,22.9,21.9,00.0,31.8,24.9,18.1,-000.5,0012.26,0006.45,0005.86
2022-12-05 18:46:00,,0818.0,5.00,0.00,23.0,21.9,00.0,31.8,24.9,18.1,-000.5,0012.62,0006.45,0005.88
2022-12-05 18:47:00,,0817.9,4.99,0.00,23.0,21.9,00.0,31.8,24.9,18.1,-000.5,0012.55,0006.45,0005.90
2022-12-05 18:48:00,,0818.0,5.00,0.00,23.0,22.0,00.0,31.8,24.9,18.1,-000.2,0013.74,0006.46,0005.91
2022-12-05 18:49:00,,0817.9,5.00,0.00,23.0,22.0,00.0,31.8,24.9,18.2,-000.3,0014.77,0006.48,0005.90
2022-12-05 18:50:00,,0817.8,5.00,0.00,23.0,22.0,00.0,31.8,24.9,18.2,0000.1,0014.88,0006.53,0005.91
2022-12-05 18:51:00,,0817.8,5.00,0.00,23.0,22.0,00.0,31.8,25.0,18.0,0000.0,0014.82,0006.52,0005.91
2022-12-05 18:52:00,,0818.0,5.01,0.00,23.1,22.0,00.0,31.9,25.0,17.9,0000.0,0013.90,0006.51,0005.91
2022-12-05 18:53:00,,0818.0,5.01,0.00,23.1,22.1,00.0,31.9,25.0,17.9,0000.0,0013.81,0006.50,0005.90
2022-12-05 18:54:00,,0818.0,5.00,0.00,23.1,22.1,00.0,31.9,25.0,18.0,0000.0,0013.99,0006.56,0005.90
2022-12-05 18:55:00,,0818.0,5.01,0.00,23.1,22.1,00.0,31.9,25.0,18.0,0000.0,0013.75,0006.54,0005.91
2022-12-05 18:56:00,,0817.9,4.99,0.00,23.1,22.1,00.0,31.9,25.1,18.1,0000.0,0012.84,0006.51,0005.90
2022-12-05 18:57:00,,0817.8,4.99,0.00,23.1,22.2,00.0,31.9,25.1,18.0,0000.0,0013.64,0006.45,0005.86
2022-12-05 18:58:00,,0817.8,4.99,0.00,23.2,22.2,00.0,32.0,25.1,18.0,0000.0,0014.13,0006.45,0005.85
2022-12-05 18:59:00,,0817.8,5.00,0.00,23.2,22.2,00.0,32.0,25.1,17.9,0000.0,0012.98,0006.40,0005.82
